Location: Helsinki
(60.1699°N, 24.9384°E)
Time: 14:09:26
(UTC+02:00)

Tiros 1 - Pass Details

Date: 09 October 2022
Orbit: 629 x 662 km, 48.4° (Epoch: 07 December)

Event Time Altitude Azimuth Distance (km) Brightness Sun altitude
Rises 02:01:31 0° 251° (WSW) 2,994 - -35.0°
Reaches altitude 10° 02:04:27 10° 234° (SW) 2,079 - -34.9°
Maximum altitude 02:07:46 19° 190° (S) 1,565 - -34.8°
Drops below altitude 10° 02:11:05 10° 146° (SE) 2,069 - -34.7°
Sets 02:13:59 0° 128° (SE) 2,974 - -34.6°
